Home   Weather   Victorville   Past weeks

Flag for USA Past Weather in Victorville, California, USA — Yesterday and Last 2 Weeks

Now
52 °F

Overcast.


Feels Like: 52 °F
Forecast: 44 / 61 °F
Wind: No wind

Location: George Air Force Base / Victorvi

Current Time: Feb 20, 2017 at 9:45:10 pm

Latest Report: Feb 20, 2017 at 8:55 pm


Visibility: 10 mi

Pressure: 30.26 "Hg (27.39 "Hg at 830m altitude)

Humidity: 82%

Dew Point: 46 °F

Location of VictorvilleLocation

Past Weather in Victorville — Graph

°F

Victorville Temperature Yesterday

Maximum temperature yesterday: 57 °F (at 12:55 pm)
Minimum temperature yesterday: 43 °F (at 12:55 am)
Average temperature yesterday: 50 °F

High & Low Weather Summary for the Past Weeks

 TemperatureHumidityPressure
High79 °F (Feb 9, 3:15 pm)94% (Feb 11, 4:55 am)30.25 "Hg (Feb 11, 4:55 am)
Low37 °F (Feb 15, 3:15 am)13% (Feb 16, 12:55 pm)29.47 "Hg (Feb 17, 5:35 pm)
Average53 °F61%30.01 "Hg
* Reported Feb 5 8:15 pm — Feb 20 8:15 pm, Victorville, Weather by CustomWeather, © 2017

Note: Actual official high and low records may vary slightly from our data, if they occured in-between our weather recording intervals... More about our weather records

Advertising

Victorville Weather History for the Previous 24 Hours

Scroll right to see more
 ConditionsComfort  
Time TempWeatherWind HumidityBarometerVisibility
8:15 pm
Mon, Feb 20
52 °FClear.No wind82%30.25 "Hg10 mi
7:55 pm52 °FClear.8 mph82%30.24 "Hg10 mi
7:35 pm52 °FClear.7 mph82%30.24 "Hg10 mi
6:55 pm54 °FPassing clouds.8 mph77%30.24 "Hg10 mi
6:15 pm55 °FOvercast.10 mph72%30.24 "Hg10 mi
5:55 pm57 °FOvercast.9 mph67%30.24 "Hg10 mi
5:15 pm57 °FOvercast.10 mph67%30.23 "Hg10 mi
4:55 pm57 °FPartly sunny.12 mph67%30.21 "Hg10 mi
4:35 pm59 °FScattered clouds.12 mph63%30.21 "Hg10 mi
3:55 pm61 °FSunny.18 mph59%30.18 "Hg10 mi
3:15 pm63 °FSunny.18 mph56%30.17 "Hg10 mi
2:35 pm63 °FSunny.13 mph52%30.17 "Hg10 mi
1:55 pm64 °FScattered clouds.16 mph52%30.17 "Hg10 mi
1:35 pm63 °FScattered clouds.9 mph56%30.18 "Hg10 mi
12:55 pm63 °FSunny.14 mph56%30.18 "Hg10 mi
12:15 pm61 °FSunny.9 mph59%30.19 "Hg10 mi
11:35 am61 °FScattered clouds.9 mph55%30.20 "Hg10 mi
10:55 am59 °FSunny.8 mph59%30.21 "Hg10 mi
10:15 am57 °FSunny.8 mph63%30.21 "Hg10 mi
9:55 am55 °FSunny.10 mph67%30.19 "Hg10 mi
9:15 am54 °FSunny.14 mph67%30.18 "Hg10 mi
8:55 am52 °FSunny.15 mph72%30.17 "Hg10 mi
8:15 am50 °FSunny.10 mph76%30.16 "Hg10 mi
7:55 am48 °FSunny.8 mph76%30.16 "Hg10 mi
7:15 am46 °FScattered clouds.6 mph82%30.14 "Hg10 mi
6:35 am46 °FSunny.10 mph76%30.13 "Hg10 mi
5:55 am46 °FMostly cloudy.10 mph76%30.12 "Hg10 mi
5:15 am45 °FClear.9 mph81%30.11 "Hg10 mi
4:55 am45 °FClear.9 mph81%30.10 "Hg10 mi
4:15 am45 °FClear.13 mph81%30.08 "Hg10 mi
3:55 am45 °FClear.14 mph81%30.08 "Hg10 mi
3:15 am45 °FPassing clouds.13 mph87%30.08 "Hg10 mi
2:55 am45 °FPassing clouds.7 mph87%30.09 "Hg10 mi
2:15 am45 °FClear.10 mph87%30.09 "Hg10 mi
1:35 am45 °FClear.10 mph81%30.09 "Hg10 mi
12:55 am46 °FClear.14 mph82%30.07 "Hg10 mi
12:15 am46 °FPassing clouds.16 mph87%30.08 "Hg10 mi
11:35 pm
Sun, Feb 19
48 °FPartly cloudy.14 mph82%30.08 "Hg10 mi
10:55 pm46 °FPassing clouds.12 mph87%30.08 "Hg10 mi
10:15 pm46 °FPartly cloudy.13 mph87%30.06 "Hg10 mi
9:55 pm46 °FOvercast.16 mph87%30.05 "Hg10 mi
9:15 pm48 °FPassing clouds.13 mph82%30.04 "Hg10 mi
Weather by CustomWeather, © 2017

See weather overviewHow to use our weather pages